EWG5ED LFMN-EDDB

Flight info

Callsign EWG5ED
Flight time 1h 57m
Altitude 36000
Route BASIP DCT ANAKI DCT DEVOX DCT ABESI/N0455F350 DCT GAMSA DCT RUDNO/N0452F360 T203 TIVDA/N0450F370 DCT ETVIS DCT NAVEK DCT GAVLI/N0451F360 T203 ATGUP ATGUP1L
Aircraft A320/M-SDE3FGHIRWY/LB1

Departure

Time 2026-05-01 12:57
Airport Nice-Côte d'Azur Airport (LFMN)

Arrival

Time 2026-05-01 14:54
Airport Berlin Brandenburg Airport (EDDB)
Time Latitude Longitude Altitude Speed Heading
2026-05-01 12:16 43.66121 7.20691 49 ft 0 kts 261°
2026-05-01 12:47 43.66122 7.20703 22 ft 2 kts 252°
2026-05-01 12:47 43.66128 7.20724 24 ft 2 kts 245°
2026-05-01 12:47 43.66137 7.20742 24 ft 2 kts 226°
2026-05-01 12:48 43.66149 7.20757 25 ft 2 kts 210°
2026-05-01 12:48 43.66164 7.20767 22 ft 2 kts 197°
2026-05-01 12:48 43.66180 7.20773 23 ft 2 kts 187°
2026-05-01 12:48 43.66196 7.20774 23 ft 2 kts 179°
2026-05-01 12:49 43.66212 7.20773 22 ft 2 kts 173°
2026-05-01 12:49 43.66215 7.20773 22 ft 0 kts 172°
2026-05-01 12:53 43.65993 7.20822 24 ft 23 kts 170°
2026-05-01 12:53 43.65830 7.20861 22 ft 24 kts 171°
2026-05-01 12:53 43.65663 7.20898 24 ft 25 kts 171°
2026-05-01 12:54 43.65492 7.20936 22 ft 25 kts 171°
2026-05-01 12:54 43.65256 7.20828 22 ft 23 kts 225°
2026-05-01 12:54 43.65142 7.20671 22 ft 24 kts 225°
2026-05-01 12:55 43.64999 7.20473 22 ft 9 kts 225°
2026-05-01 12:55 43.64957 7.20415 22 ft 8 kts 225°
2026-05-01 12:55 43.64914 7.20356 22 ft 13 kts 225°
2026-05-01 12:56 43.64830 7.20241 22 ft 17 kts 224°
2026-05-01 12:56 43.64738 7.20213 24 ft 14 kts 146°
2026-05-01 12:56 43.64727 7.20322 23 ft 14 kts 48°
2026-05-01 12:56 43.64846 7.20489 22 ft 53 kts 45°
2026-05-01 12:57 43.65274 7.21080 23 ft 118 kts 44°
2026-05-01 12:57 43.66731 7.23152 787 ft 155 kts 63°
2026-05-01 12:57 43.66932 7.24565 1436 ft 152 kts 103°
2026-05-01 12:58 43.66657 7.26070 1751 ft 175 kts 117°
2026-05-01 12:58 43.65821 7.27436 2072 ft 198 kts 134°
2026-05-01 12:58 43.64824 7.28867 2479 ft 216 kts 132°
2026-05-01 12:59 43.63376 7.32450 3967 ft 221 kts 89°
2026-05-01 12:59 43.63698 7.34517 4766 ft 223 kts 70°
2026-05-01 12:59 43.64771 7.38588 6356 ft 230 kts 68°
2026-05-01 13:00 43.65877 7.42804 7859 ft 236 kts 68°
2026-05-01 13:00 43.66436 7.44945 8697 ft 235 kts 68°
2026-05-01 13:01 43.67533 7.49178 9995 ft 235 kts 69°
2026-05-01 13:01 43.68121 7.51414 10273 ft 261 kts 69°
2026-05-01 13:01 43.69452 7.56405 10343 ft 293 kts 69°
2026-05-01 13:02 43.70199 7.59197 10388 ft 323 kts 69°
2026-05-01 13:07 43.99514 8.21388 16328 ft 373 kts 60°
2026-05-01 13:07 44.00794 8.24540 16329 ft 375 kts 60°
2026-05-01 13:07 44.02075 8.27696 16328 ft 373 kts 60°
2026-05-01 13:08 44.03351 8.30837 16326 ft 375 kts 60°
2026-05-01 13:08 44.04635 8.34000 16326 ft 374 kts 60°
2026-05-01 13:08 44.05910 8.37152 16329 ft 375 kts 60°
2026-05-01 13:08 44.07182 8.40310 16321 ft 375 kts 60°
2026-05-01 13:09 44.08461 8.43491 16416 ft 378 kts 60°
2026-05-01 13:09 44.09753 8.46704 16986 ft 380 kts 60°
2026-05-01 13:09 44.11046 8.49916 17573 ft 382 kts 60°
2026-05-01 13:09 44.12348 8.53159 18111 ft 386 kts 60°
2026-05-01 13:10 44.13665 8.56444 18649 ft 388 kts 60°
2026-05-01 13:10 44.14982 8.59730 19107 ft 391 kts 60°
2026-05-01 13:10 44.16333 8.63032 19542 ft 394 kts 57°
2026-05-01 13:10 44.18001 8.66067 20001 ft 396 kts 47°
2026-05-01 13:11 44.20047 8.68653 20420 ft 399 kts 37°
2026-05-01 13:11 44.22411 8.70688 20886 ft 402 kts 27°
2026-05-01 13:11 44.25018 8.72114 21308 ft 406 kts 17°
2026-05-01 13:11 44.27790 8.72882 21860 ft 404 kts
2026-05-01 13:12 44.30610 8.72550 22181 ft 410 kts 356°
2026-05-01 13:12 44.33472 8.72390 22531 ft 413 kts
2026-05-01 13:12 44.36347 8.72606 22947 ft 415 kts
2026-05-01 13:12 44.39230 8.72979 23358 ft 416 kts
2026-05-01 13:13 44.42126 8.73352 23760 ft 419 kts
2026-05-01 13:13 44.45040 8.73650 24115 ft 421 kts
2026-05-01 13:13 44.47966 8.73860 24449 ft 423 kts
2026-05-01 13:13 44.50883 8.73998 24775 ft 425 kts
2026-05-01 13:14 44.53850 8.74097 25106 ft 427 kts
2026-05-01 13:14 44.56823 8.74185 25431 ft 429 kts
2026-05-01 13:14 44.59814 8.74281 25735 ft 431 kts
2026-05-01 13:14 44.62818 8.74389 26055 ft 433 kts
2026-05-01 13:15 44.65833 8.74511 26364 ft 435 kts
2026-05-01 13:15 44.68869 8.74650 26656 ft 436 kts
2026-05-01 13:15 44.71887 8.75129 26948 ft 438 kts
2026-05-01 13:15 44.74914 8.75746 27226 ft 440 kts
2026-05-01 13:16 44.77951 8.76358 27504 ft 442 kts
2026-05-01 13:16 44.80997 8.76961 27781 ft 443 kts
2026-05-01 13:16 44.84055 8.77562 28155 ft 443 kts
2026-05-01 13:17 44.93207 8.79356 29164 ft 444 kts
2026-05-01 13:17 44.96273 8.79962 29496 ft 445 kts
2026-05-01 13:18 45.02364 8.81177 30300 ft 444 kts
2026-05-01 13:18 45.05415 8.81785 30662 ft 443 kts
2026-05-01 13:18 45.08463 8.82392 31001 ft 442 kts
2026-05-01 13:18 45.11507 8.83002 31336 ft 441 kts
2026-05-01 13:19 45.14576 8.83620 31668 ft 440 kts
2026-05-01 13:19 45.17571 8.84225 31980 ft 439 kts
2026-05-01 13:19 45.23616 8.85440 32653 ft 438 kts
2026-05-01 13:20 45.26633 8.86046 32930 ft 437 kts
2026-05-01 13:20 45.29648 8.86650 33244 ft 437 kts
2026-05-01 13:20 45.32659 8.87252 33560 ft 437 kts
2026-05-01 13:21 45.38665 8.88463 34201 ft 436 kts
2026-05-01 13:21 45.41666 8.89070 34500 ft 435 kts
2026-05-01 13:21 45.44662 8.89677 34815 ft 435 kts
2026-05-01 13:21 45.47656 8.90283 35086 ft 434 kts
2026-05-01 13:22 45.50643 8.90886 35358 ft 433 kts
2026-05-01 13:22 45.53627 8.91490 35631 ft 432 kts
2026-05-01 13:22 45.56569 8.92084 35890 ft 431 kts
2026-05-01 13:22 45.59540 8.92687 36150 ft 431 kts
2026-05-01 13:23 45.62511 8.93291 36337 ft 430 kts
2026-05-01 13:23 45.65491 8.93896 36381 ft 433 kts
2026-05-01 13:23 45.71464 8.95112 36376 ft 434 kts
2026-05-01 13:24 45.77434 8.96330 36380 ft 434 kts
2026-05-01 13:25 45.86405 8.98176 36381 ft 434 kts
2026-05-01 13:25 45.92357 8.99398 36381 ft 434 kts
2026-05-01 13:26 45.98337 9.00626 36382 ft 434 kts
2026-05-01 13:26 46.04308 9.01864 36354 ft 434 kts
2026-05-01 13:27 46.10298 9.03103 36351 ft 434 kts
2026-05-01 13:27 46.19138 9.05781 36350 ft 435 kts 18°
2026-05-01 13:28 46.27755 9.09910 36348 ft 435 kts 18°
2026-05-01 13:29 46.39274 9.15424 36338 ft 436 kts 18°
2026-05-01 13:31 46.56501 9.23717 36329 ft 436 kts 18°
2026-05-01 13:32 46.70889 9.30696 36306 ft 436 kts 18°
2026-05-01 13:33 46.85274 9.37726 36290 ft 436 kts 18°
2026-05-01 13:34 46.96780 9.43351 36290 ft 436 kts 18°
2026-05-01 13:35 47.05413 9.47602 36296 ft 436 kts 18°
2026-05-01 13:36 47.13993 9.51844 36316 ft 435 kts 18°
2026-05-01 13:36 47.22581 9.56094 36319 ft 434 kts 18°
2026-05-01 13:37 47.27375 9.58467 36317 ft 433 kts 18°
2026-05-01 13:37 47.34018 9.61779 36312 ft 433 kts 18°
2026-05-01 13:38 47.42169 9.67319 36308 ft 433 kts 37°
2026-05-01 13:39 47.46604 9.73364 36302 ft 434 kts 43°
2026-05-01 13:39 47.50225 9.78523 36302 ft 434 kts 43°
2026-05-01 13:40 47.55298 9.85737 36304 ft 435 kts 43°
2026-05-01 13:40 47.59649 9.91970 36308 ft 435 kts 43°
2026-05-01 13:41 47.63268 9.97165 36313 ft 435 kts 43°
2026-05-01 13:41 47.67614 10.03404 36316 ft 435 kts 43°
2026-05-01 13:42 47.71951 10.09650 36314 ft 435 kts 43°
2026-05-01 13:42 47.76286 10.15918 36337 ft 435 kts 43°
2026-05-01 13:43 47.80620 10.22179 36336 ft 434 kts 43°
2026-05-01 13:43 47.84941 10.28446 36347 ft 433 kts 43°
2026-05-01 13:44 47.89241 10.34705 36332 ft 432 kts 43°
2026-05-01 13:44 47.93540 10.40974 36334 ft 432 kts 43°
2026-05-01 13:45 47.97832 10.47247 36330 ft 431 kts 43°
2026-05-01 13:45 48.02117 10.53533 36325 ft 431 kts 44°
2026-05-01 13:46 48.06396 10.59825 36323 ft 431 kts 44°
2026-05-01 13:46 48.10673 10.66120 36322 ft 431 kts 44°
2026-05-01 13:47 48.14913 10.72391 36333 ft 431 kts 44°
2026-05-01 13:47 48.19204 10.78739 36343 ft 431 kts 44°
2026-05-01 13:48 48.23466 10.85050 36340 ft 430 kts 44°
2026-05-01 13:48 48.27695 10.91340 36336 ft 430 kts 44°
2026-05-01 13:49 48.31933 10.97661 36361 ft 430 kts 44°
2026-05-01 13:49 48.36175 11.04007 36354 ft 430 kts 44°
2026-05-01 13:50 48.40408 11.10340 36357 ft 430 kts 44°
2026-05-01 13:50 48.44644 11.16709 36335 ft 430 kts 44°
2026-05-01 13:51 48.48867 11.23087 36348 ft 430 kts 44°
2026-05-01 13:51 48.53092 11.29458 36334 ft 430 kts 44°
2026-05-01 13:52 48.57322 11.35848 36367 ft 430 kts 44°
2026-05-01 13:52 48.61544 11.42257 36362 ft 430 kts 44°
2026-05-01 13:53 48.65732 11.48626 36362 ft 430 kts 44°
2026-05-01 13:53 48.72042 11.58262 36363 ft 429 kts 44°
2026-05-01 13:54 48.76249 11.64693 36369 ft 429 kts 44°
2026-05-01 13:54 48.80450 11.71139 36360 ft 430 kts 44°
2026-05-01 13:55 48.84651 11.77593 36368 ft 430 kts 44°
2026-05-01 13:55 48.88849 11.84064 36377 ft 430 kts 44°
2026-05-01 13:56 48.93038 11.90560 36380 ft 430 kts 45°
2026-05-01 13:56 48.97234 11.97070 36393 ft 430 kts 45°
2026-05-01 13:57 49.01415 12.03573 36406 ft 430 kts 45°
2026-05-01 13:57 49.05603 12.10098 36393 ft 430 kts 45°
2026-05-01 13:58 49.09777 12.16618 36398 ft 430 kts 45°
2026-05-01 13:58 49.13922 12.23100 36395 ft 430 kts 45°
2026-05-01 13:59 49.18094 12.29645 36388 ft 430 kts 45°
2026-05-01 13:59 49.22268 12.36197 36390 ft 430 kts 45°
2026-05-01 14:00 49.26427 12.42767 36389 ft 430 kts 45°
2026-05-01 14:00 49.30581 12.49369 36388 ft 430 kts 45°
2026-05-01 14:01 49.34902 12.55673 36409 ft 429 kts 36°
2026-05-01 14:01 49.39691 12.61156 36417 ft 428 kts 36°
2026-05-01 14:02 49.44546 12.66323 36411 ft 427 kts 27°
2026-05-01 14:02 49.49903 12.70289 36405 ft 426 kts 25°
2026-05-01 14:03 49.55256 12.74233 36405 ft 426 kts 26°
2026-05-01 14:03 49.60606 12.78196 36406 ft 427 kts 26°
2026-05-01 14:04 49.66076 12.81725 36402 ft 427 kts 15°
2026-05-01 14:04 49.70812 12.83004 36402 ft 428 kts
2026-05-01 14:05 49.77707 12.84565 36400 ft 428 kts
2026-05-01 14:05 49.83561 12.85916 36399 ft 428 kts
2026-05-01 14:06 49.89346 12.87260 36401 ft 428 kts
2026-05-01 14:06 49.95218 12.88625 36395 ft 428 kts
2026-05-01 14:07 50.01121 12.89996 36388 ft 428 kts
2026-05-01 14:08 50.09965 12.92058 36389 ft 428 kts
2026-05-01 14:08 50.15852 12.93438 36385 ft 428 kts
2026-05-01 14:09 50.21761 12.94818 36367 ft 429 kts
2026-05-01 14:09 50.27654 12.96363 36367 ft 429 kts 15°
2026-05-01 14:10 50.33104 12.99938 36370 ft 429 kts 27°
2026-05-01 14:10 50.38431 13.04157 36386 ft 429 kts 27°
2026-05-01 14:11 50.43756 13.08368 36400 ft 429 kts 27°
2026-05-01 14:11 50.51735 13.14701 36408 ft 428 kts 27°
2026-05-01 14:12 50.57051 13.18966 36397 ft 428 kts 27°
2026-05-01 14:12 50.62266 13.23170 36398 ft 428 kts 27°
2026-05-01 14:13 50.65888 13.26098 36398 ft 428 kts 27°
2026-05-01 14:13 50.72064 13.31082 36398 ft 429 kts 27°
2026-05-01 14:14 50.77374 13.35374 36395 ft 429 kts 27°
2026-05-01 14:14 50.82684 13.39694 36410 ft 428 kts 27°
2026-05-01 14:15 50.87975 13.44005 36401 ft 428 kts 27°
2026-05-01 14:15 50.93356 13.48076 36402 ft 427 kts 19°
2026-05-01 14:16 50.99161 13.50056 36400 ft 428 kts 10°
2026-05-01 14:16 51.05045 13.51616 36396 ft 428 kts 10°
2026-05-01 14:17 51.10908 13.53196 36391 ft 428 kts 10°
2026-05-01 14:17 51.16693 13.54766 36393 ft 428 kts 10°
2026-05-01 14:18 51.22584 13.56365 36399 ft 428 kts 11°
2026-05-01 14:18 51.27453 13.57688 36388 ft 428 kts 10°
2026-05-01 14:19 51.34286 13.59547 36391 ft 428 kts 10°
2026-05-01 14:19 51.40153 13.61149 36390 ft 428 kts 10°
2026-05-01 14:20 51.48920 13.63556 36387 ft 427 kts 11°
2026-05-01 14:21 51.54779 13.65169 36390 ft 427 kts 10°
2026-05-01 14:21 51.60474 13.66893 36325 ft 426 kts 13°
2026-05-01 14:22 51.62160 13.67492 36063 ft 424 kts 13°
2026-05-01 14:22 51.65028 13.68573 35804 ft 425 kts 14°
2026-05-01 14:23 51.67914 13.69697 35624 ft 426 kts 14°
2026-05-01 14:23 51.70805 13.70823 35449 ft 427 kts 14°
2026-05-01 14:23 51.73691 13.71926 35278 ft 427 kts 14°
2026-05-01 14:23 51.76601 13.73014 35101 ft 427 kts 13°
2026-05-01 14:24 51.79465 13.74064 34933 ft 428 kts 13°
2026-05-01 14:24 51.82409 13.75137 34740 ft 429 kts 13°
2026-05-01 14:24 51.85302 13.76198 34420 ft 422 kts 13°
2026-05-01 14:24 51.88090 13.77223 34069 ft 413 kts 14°
2026-05-01 14:25 51.90895 13.78260 33705 ft 404 kts 14°
2026-05-01 14:25 51.93576 13.79016 33333 ft 388 kts
2026-05-01 14:25 51.96214 13.79453 32909 ft 373 kts
2026-05-01 14:25 51.98767 13.79873 32209 ft 367 kts
2026-05-01 14:26 52.01289 13.80291 31479 ft 362 kts
2026-05-01 14:26 52.06253 13.81123 30017 ft 354 kts
2026-05-01 14:26 52.08685 13.81532 29310 ft 348 kts
2026-05-01 14:27 52.11070 13.81930 28621 ft 342 kts
2026-05-01 14:27 52.13428 13.82323 27940 ft 336 kts
2026-05-01 14:27 52.15697 13.82948 27284 ft 328 kts 21°
2026-05-01 14:28 52.19133 13.87258 26016 ft 314 kts 58°
2026-05-01 14:28 52.19981 13.90519 25402 ft 311 kts 76°
2026-05-01 14:28 52.20155 13.92879 25006 ft 311 kts 88°
2026-05-01 14:28 52.19543 13.97417 24222 ft 314 kts 112°
2026-05-01 14:29 52.18285 14.00352 23586 ft 319 kts 131°
2026-05-01 14:29 52.17130 14.01864 23127 ft 323 kts 144°
2026-05-01 14:30 52.10365 14.02719 20782 ft 347 kts 202°
2026-05-01 14:30 52.08383 14.00488 20037 ft 351 kts 226°
2026-05-01 14:30 52.07065 13.97178 19308 ft 350 kts 252°
2026-05-01 14:31 52.07271 13.89553 17255 ft 349 kts 302°
2026-05-01 14:31 52.08801 13.86513 15964 ft 350 kts 326°
2026-05-01 14:31 52.10952 13.84650 14719 ft 353 kts 342°
2026-05-01 14:31 52.13253 13.83162 13443 ft 359 kts 341°
2026-05-01 14:32 52.15589 13.81651 12147 ft 363 kts 341°
2026-05-01 14:32 52.17963 13.80242 10898 ft 359 kts 349°
2026-05-01 14:32 52.20410 13.80000 9636 ft 354 kts
2026-05-01 14:32 52.22746 13.81158 8352 ft 348 kts 28°
2026-05-01 14:33 52.24658 13.83386 7138 ft 343 kts 46°
2026-05-01 14:33 52.26074 13.86486 6071 ft 335 kts 60°
2026-05-01 14:33 52.27245 13.89606 5645 ft 312 kts 58°
2026-05-01 14:33 52.28383 13.92454 5479 ft 284 kts 57°
2026-05-01 14:34 52.29433 13.95022 5361 ft 258 kts 56°
2026-05-01 14:34 52.30377 13.97332 5359 ft 230 kts 57°
2026-05-01 14:34 52.31215 13.99403 5367 ft 210 kts 57°
2026-05-01 14:34 52.32031 14.01436 5368 ft 216 kts 57°
2026-05-01 14:35 52.32855 14.03495 5369 ft 216 kts 57°
2026-05-01 14:35 52.33679 14.05560 5322 ft 215 kts 57°
2026-05-01 14:35 52.34484 14.07583 5059 ft 215 kts 57°
2026-05-01 14:35 52.35294 14.09629 4993 ft 215 kts 57°
2026-05-01 14:36 52.36108 14.11685 4996 ft 215 kts 57°
2026-05-01 14:36 52.36927 14.13757 4995 ft 216 kts 57°
2026-05-01 14:36 52.37742 14.15826 4997 ft 216 kts 57°
2026-05-01 14:36 52.38555 14.17889 4972 ft 217 kts 57°
2026-05-01 14:37 52.39376 14.19976 4863 ft 215 kts 57°
2026-05-01 14:37 52.40187 14.22041 4958 ft 216 kts 57°
2026-05-01 14:37 52.41002 14.24121 4982 ft 217 kts 57°
2026-05-01 14:37 52.41820 14.26201 4889 ft 219 kts 56°
2026-05-01 14:38 52.42638 14.28350 4605 ft 219 kts 57°
2026-05-01 14:38 52.43454 14.30445 4602 ft 218 kts 57°
2026-05-01 14:38 52.44271 14.32526 4601 ft 216 kts 56°
2026-05-01 14:38 52.45025 14.34432 4604 ft 215 kts 56°
2026-05-01 14:39 52.45855 14.36467 4607 ft 215 kts 50°
2026-05-01 14:39 52.46974 14.38084 4604 ft 215 kts 31°
2026-05-01 14:39 52.48365 14.38974 4613 ft 216 kts 12°
2026-05-01 14:39 52.49852 14.39033 4605 ft 213 kts 352°
2026-05-01 14:40 52.51235 14.38336 4597 ft 202 kts 341°
2026-05-01 14:40 52.52496 14.37552 4619 ft 189 kts 341°
2026-05-01 14:40 52.53678 14.36644 4607 ft 189 kts 323°
2026-05-01 14:40 52.54459 14.34905 4608 ft 194 kts 292°
2026-05-01 14:41 52.54564 14.32694 4611 ft 199 kts 259°
2026-05-01 14:41 52.54163 14.30525 4609 ft 199 kts 249°
2026-05-01 14:41 52.53676 14.28411 4588 ft 191 kts 250°
2026-05-01 14:41 52.53218 14.26480 4585 ft 168 kts 250°
2026-05-01 14:42 52.52802 14.24761 4609 ft 160 kts 250°
2026-05-01 14:42 52.52405 14.23108 4610 ft 155 kts 251°
2026-05-01 14:42 52.52016 14.21432 4624 ft 165 kts 251°
2026-05-01 14:42 52.51591 14.19585 4692 ft 167 kts 251°
2026-05-01 14:43 52.51193 14.17870 4896 ft 159 kts 250°
2026-05-01 14:43 52.50795 14.16149 4974 ft 159 kts 250°
2026-05-01 14:43 52.50405 14.14461 4989 ft 158 kts 250°
2026-05-01 14:43 52.50015 14.12785 4991 ft 157 kts 250°
2026-05-01 14:44 52.49627 14.11111 4992 ft 156 kts 250°
2026-05-01 14:44 52.48818 14.07784 4993 ft 158 kts 250°
2026-05-01 14:44 52.48418 14.06117 4996 ft 156 kts 249°
2026-05-01 14:45 52.48030 14.04464 4995 ft 154 kts 249°
2026-05-01 14:45 52.47272 14.01200 4803 ft 151 kts 250°
2026-05-01 14:45 52.46899 13.99590 4446 ft 151 kts 251°
2026-05-01 14:46 52.46532 13.98003 4111 ft 150 kts 250°
2026-05-01 14:46 52.45802 13.94854 3508 ft 145 kts 252°
2026-05-01 14:46 52.45443 13.93306 3153 ft 146 kts 251°
2026-05-01 14:47 52.45087 13.91771 3015 ft 145 kts 251°
2026-05-01 14:47 52.44727 13.90222 2984 ft 145 kts 251°
2026-05-01 14:47 52.44365 13.88667 2989 ft 145 kts 251°
2026-05-01 14:48 52.43645 13.85571 2991 ft 145 kts 251°
2026-05-01 14:48 52.43284 13.84024 2988 ft 146 kts 252°
2026-05-01 14:48 52.42562 13.80924 2992 ft 146 kts 252°
2026-05-01 14:49 52.41833 13.77805 2993 ft 146 kts 251°
2026-05-01 14:49 52.41107 13.74703 2926 ft 145 kts 251°
2026-05-01 14:50 52.40628 13.72656 2733 ft 145 kts 251°
2026-05-01 14:50 52.39662 13.68537 2239 ft 145 kts 252°
2026-05-01 14:51 52.39307 13.67024 2050 ft 144 kts 250°
2026-05-01 14:51 52.38593 13.63990 1671 ft 142 kts 250°
2026-05-01 14:52 52.37883 13.60961 1307 ft 142 kts 248°
2026-05-01 14:52 52.37516 13.59457 1103 ft 142 kts 250°
2026-05-01 14:52 52.36822 13.56474 769 ft 137 kts 252°
2026-05-01 14:53 52.36490 13.55031 588 ft 132 kts 249°
2026-05-01 14:53 52.36148 13.53614 404 ft 135 kts 250°
2026-05-01 14:53 52.35820 13.52207 228 ft 133 kts 249°
2026-05-01 14:53 52.35486 13.50816 165 ft 127 kts 248°
2026-05-01 14:54 52.35221 13.49686 158 ft 82 kts 249°
2026-05-01 14:54 52.35038 13.48930 159 ft 63 kts 248°
2026-05-01 14:54 52.34898 13.48334 161 ft 51 kts 250°
2026-05-01 14:54 52.34782 13.47834 159 ft 44 kts 249°
2026-05-01 14:55 52.34696 13.47474 156 ft 33 kts 249°
2026-05-01 14:55 52.34614 13.47133 158 ft 32 kts 248°
2026-05-01 14:55 52.34589 13.46880 159 ft 20 kts 302°
2026-05-01 14:55 52.34673 13.46797 159 ft 0 kts 335°
2026-05-01 14:57 52.34760 13.46774 158 ft 13 kts 26°
2026-05-01 14:57 52.34777 13.46840 158 ft 5 kts 75°
2026-05-01 14:58 52.34790 13.46892 158 ft 7 kts 63°
2026-05-01 14:58 52.34844 13.47120 158 ft 29 kts 71°
2026-05-01 14:58 52.34925 13.47458 158 ft 33 kts 67°
2026-05-01 14:58 52.35015 13.47813 158 ft 34 kts 69°
2026-05-01 14:59 52.35101 13.48185 158 ft 35 kts 70°
2026-05-01 14:59 52.35180 13.48533 158 ft 32 kts 69°
2026-05-01 14:59 52.35266 13.48876 159 ft 33 kts 68°
2026-05-01 14:59 52.35350 13.49238 159 ft 35 kts 69°
2026-05-01 15:00 52.35532 13.50011 158 ft 37 kts 69°
2026-05-01 15:00 52.35615 13.50349 158 ft 26 kts 68°
2026-05-01 15:00 52.35681 13.50628 159 ft 24 kts 67°
2026-05-01 15:01 52.35745 13.50815 158 ft 14 kts 27°
2026-05-01 15:01 52.35835 13.50792 158 ft 13 kts 337°
2026-05-01 15:01 52.35913 13.50743 158 ft 12 kts 339°
2026-05-01 15:01 52.36012 13.50679 152 ft 20 kts 335°
2026-05-01 15:02 52.36133 13.50609 152 ft 6 kts 339°
2026-05-01 15:02 52.36145 13.50601 152 ft 5 kts 337°
2026-05-01 15:02 52.36189 13.50609 152 ft 3 kts 54°
2026-05-01 15:02 52.36197 13.50639 152 ft 3 kts 67°
2026-05-01 15:03 52.36205 13.50671 152 ft 7 kts 69°
2026-05-01 15:03 52.36216 13.50718 152 ft 0 kts 70°